This demonstration page uses our WeatherBlox Daily Observations layout. Learn more.

Left ArrowRight Arrow

39.51506, -84.39828

Hourly Observations for April 20, 2018

Temp ( °F °C ) Dew Point ( °F °C ) Humidity (%) Winds ( mph kmh ) Pressure ( in mb ) Visibility ( mi km ) Precip ( " mm )
12:15 am 00:15 Clear 43 5.9 30 -1 62 62 NNW 8 13 30.36 1028 10 16 0.00 0.00
12:35 am 00:35 Clear 42 5.3 31 -0.8 65 65 N 7 11 30.39 1029 10 16 0.00 0.00
12:55 am 00:55 Clear 41 4.9 30 -0.9 66 66 N 5 7 30.39 1029 10 16 0.00 0.00
1:15 am 01:15 Clear 40 4.2 31 -0.8 70 70 N 7 11 30.39 1029 10 16 0.00 0.00
1:35 am 01:35 Clear 40 4.2 30 -1.2 68 68 Calm 30.39 1029 10 16 0.00 0.00
1:55 am 01:55 Clear 39 3.9 29 -1.4 69 69 Calm 30.42 1030 10 16 0.00 0.00
2:15 am 02:15 Clear 38 3.1 29 -1.6 72 72 Calm 30.42 1030 10 16 0.00 0.00
2:35 am 02:35 Clear 38 3.5 29 -1.7 69 69 Calm 30.42 1030 10 16 0.00 0.00
2:55 am 02:55 Clear 38 3.1 29 -1.8 71 71 Calm 30.42 1030 10 16 0.00 0.00
3:15 am 03:15 Clear 37 3 29 -1.8 71 71 N 3 6 30.42 1030 10 16 0.00 0.00
3:35 am 03:35 Clear 36 2.1 29 -1.7 76 76 NNE 6 9 30.42 1030 10 16 0.00 0.00
3:55 am 03:55 Clear 36 2.1 29 -1.8 76 76 N 5 7 30.42 1030 10 16 0.00 0.00
4:15 am 04:15 Clear 35 1.9 29 -1.6 78 78 Calm 30.42 1030 10 16 0.00 0.00
4:35 am 04:35 Clear 35 1.6 29 -1.7 79 79 Calm 30.45 1031 10 16 0.00 0.00
4:55 am 04:55 Clear 34 1 28 -2 81 81 Calm 30.45 1031 10 16 0.00 0.00
5:15 am 05:15 Clear 33 0.3 30 -1.1 90 90 Calm 30.45 1031 10 16 0.00 0.00
5:35 am 05:35 Clear 32 0.1 30 -1.3 90 90 Calm 30.45 1031 10 16 0.00 0.00
5:55 am 05:55 Clear 33 0.3 28 -2.3 83 83 N 3 6 30.45 1031 10 16 0.00 0.00
6:15 am 06:15 Clear 32 0.1 27 -2.8 81 81 NNE 5 7 30.48 1032 10 16 0.00 0.00
6:35 am 06:35 Clear 33 0.8 28 -2.5 79 79 Calm 30.48 1032 10 16 0.00 0.00
6:55 am 06:55 Sunny 33 0.3 26 -3.1 78 78 NNE 3 6 30.48 1032 10 16 0.00 0.00
7:15 am 07:15 Sunny 32 0 27 -3 80 80 N 3 6 30.48 1032 10 16 0.00 0.00
7:35 am 07:35 Sunny 33 0.5 27 -2.7 79 79 NNE 6 9 30.50 1033 10 16 0.00 0.00
7:55 am 07:55 Sunny 35 1.4 28 -2.4 76 76 NNE 6 9 30.50 1033 10 16 0.00 0.00
8:15 am 08:15 Sunny 36 2.3 28 -2.1 73 73 N 5 7 30.50 1033 10 16 0.00 0.00
8:35 am 08:35 Sunny 38 3.3 28 -2.1 68 68 NNE 6 9 30.53 1034 10 16 0.00 0.00
8:55 am 08:55 Sunny 39 3.9 28 -2 66 66 NNE 9 15 30.53 1034 10 16 0.00 0.00
9:15 am 09:15 Sunny 40 4.4 29 -1.7 65 65 NNE 7 11 30.53 1034 10 16 0.00 0.00
9:35 am 09:35 Sunny 42 5.5 30 -1 63 63 NE 5 7 30.53 1034 10 16 0.00 0.00
9:55 am 09:55 Sunny 43 6 30 -1.2 60 60 NNE 6 9 30.53 1034 10 16 0.00 0.00
10:15 am 10:15 Sunny 44 6.6 30 -1 59 59 N 3 6 30.53 1034 10 16 0.00 0.00
10:35 am 10:35 Sunny 45 7.1 29 -1.5 55 55 Calm 30.53 1034 10 16 0.00 0.00
10:55 am 10:55 Sunny 47 8.1 28 -2.4 48 48 NE 5 7 30.53 1034 10 16 0.00 0.00
11:15 am 11:15 Sunny 47 8.6 26 -3.1 44 44 ENE 6 9 30.50 1033 10 16 0.00 0.00
11:35 am 11:35 Sunny 48 8.8 25 -4 41 41 Calm 30.50 1033 10 16 0.00 0.00
11:55 am 11:55 Sunny 49 9.2 24 -4.3 39 39 Calm 30.50 1033 10 16 0.00 0.00
12:15 pm 12:15 Sunny 49 9.7 25 -4 38 38 Calm 30.50 1033 10 16 0.00 0.00
12:35 pm 12:35 Sunny 51 10.4 26 -3.5 38 38 N 6 9 30.50 1033 10 16 0.00 0.00
12:55 pm 12:55 Sunny 52 10.9 24 -4.6 34 34 NW 6 9 30.50 1033 10 16 0.00 0.00
1:15 pm 13:15 Sunny 52 11.3 24 -4.2 34 34 NNE 5 7 30.50 1033 10 16 0.00 0.00
1:35 pm 13:35 Sunny 54 12.1 22 -5.5 29 29 NNW 6 9 30.48 1032 10 16 0.00 0.00
1:55 pm 13:55 Sunny 54 12.1 24 -4.7 31 31 E 7 11 30.48 1032 10 16 0.00 0.00
2:15 pm 14:15 Sunny 55 12.8 24 -4.5 30 30 NE 9 15 30.48 1032 10 16 0.00 0.00
2:35 pm 14:35 Sunny 55 12.8 22 -5.5 28 28 N 6 9 30.48 1032 10 16 0.00 0.00
2:55 pm 14:55 Sunny 56 13.1 22 -5.6 27 27 E 5 7 30.45 1031 10 16 0.00 0.00
3:15 pm 15:15 Sunny 56 13.4 24 -4.6 29 29 Calm 30.45 1031 10 16 0.00 0.00
3:35 pm 15:35 Sunny 57 13.7 26 -3.5 30 30 NNE 3 6 30.45 1031 10 16 0.00 0.00
3:55 pm 15:55 Sunny 57 14.1 25 -3.7 29 29 ENE 8 13 30.45 1031 7 11 0.00 0.00
4:15 pm 16:15 Sunny 57 14 25 -4 29 29 ESE 3 6 30.45 1031 10 16 0.00 0.00
4:35 pm 16:35 Sunny 57 14.1 25 -3.8 29 29 NE 6 9 30.45 1031 10 16 0.00 0.00
4:55 pm 16:55 Sunny 58 14.5 27 -2.6 31 31 E 5 7 30.42 1030 10 16 0.00 0.00
5:15 pm 17:15 Sunny 58 14.3 26 -3.5 29 29 NNW 7 11 30.42 1030 10 16 0.00 0.00
5:35 pm 17:35 Sunny 58 14.6 26 -3.4 29 29 NNE 9 15 30.42 1030 10 16 0.00 0.00
5:55 pm 17:55 Sunny 58 14.7 26 -3.6 28 28 N 3 6 30.42 1030 10 16 0.00 0.00
6:15 pm 18:15 Sunny 59 14.8 25 -3.7 28 28 E 8 13 30.42 1030 10 16 0.00 0.00
6:35 pm 18:35 Sunny 58 14.5 24 -4.2 27 27 NE 7 11 30.42 1030 10 16 0.00 0.00
6:55 pm 18:55 Sunny 58 14.2 24 -4.7 27 27 NNE 6 9 30.42 1030 10 16 0.00 0.00
7:15 pm 19:15 Sunny 56 13.6 24 -4.3 29 29 N 6 9 30.42 1030 10 16 0.00 0.00
7:35 pm 19:35 Sunny 56 13.4 24 -4.5 29 29 NNE 6 9 30.42 1030 10 16 0.00 0.00
7:55 pm 19:55 Sunny 54 12.4 25 -4 32 32 NNE 7 11 30.42 1030 10 16 0.00 0.00
8:15 pm 20:15 Sunny 54 12.3 25 -3.7 33 33 N 3 6 30.42 1030 10 16 0.00 0.00
8:35 pm 20:35 Clear 51 10.8 29 -1.7 42 42 N 3 6 30.42 1030 10 16 0.00 0.00
8:55 pm 20:55 Clear 47 8.6 34 0.9 59 59 N 3 6 30.42 1030 10 16 0.00 0.00
9:15 pm 21:15 Clear 44 6.4 33 0.8 68 68 Calm 30.45 1031 10 16 0.00 0.00
9:35 pm 21:35 Clear 42 5.8 32 0 67 67 N 5 7 30.45 1031 10 16 0.00 0.00
9:55 pm 21:55 Clear 41 4.8 33 0.5 74 74 N 5 7 30.45 1031 10 16 0.00 0.00
10:15 pm 22:15 Clear 41 4.9 33 0.7 75 75 N 3 6 30.48 1032 10 16 0.00 0.00
10:35 pm 22:35 Clear 41 5 32 0 70 70 N 3 6 30.48 1032 10 16 0.00 0.00
10:50 pm 22:50 Clear 41 5 33 0.5 73 73 N 3 6 30.48 1032 10 16 0.00 0.00
11:15 pm 23:15 Clear 37 3 32 0.2 82 82 Calm 30.45 1031 10 16 0.00 0.00
11:35 pm 23:35 Clear 37 2.9 33 0.3 83 83 N 5 7 30.45 1031 10 16 0.00 0.00
11:55 pm 23:55 Clear 37 2.9 31 -0.3 80 80 N 3 6 30.45 1031 10 16 0.00 0.00

Powered by AerisWeather